| time (UTC) | temp C | wind direction | speed KPH | gust KPH | rain 1hr cm | rain 24hr cm | rain mn cm | humidity % | barometer mb |
| 20260509211545 | 21 | 106 | 3.2 | 6.4 | 0.00 | 0.00 | 0.00 | 51 | 1008.1 |
| 20260509211035 | 21 | 129 | 3.2 | 6.4 | 0.00 | 0.00 | 0.00 | 49 | 1008.0 |
| 20260509210534 | 21 | 120 | 1.6 | 6.4 | 0.00 | 0.00 | 0.00 | 50 | 1007.9 |
| 20260509210043 | 21 | 98 | 1.6 | 6.4 | 0.00 | 0.00 | 0.00 | 50 | 1007.9 |
| 20260509205535 | 21 | 268 | 0.0 | 11.3 | 0.00 | 0.00 | 0.00 | 48 | 1007.9 |
| 20260509205037 | 21 | 0 | 3.2 | 11.3 | 0.00 | 0.00 | 0.00 | 47 | 1007.9 |
| 20260509204540 | 22 | 127 | 3.2 | 11.3 | 0.00 | 0.00 | 0.00 | 46 | 1007.8 |
| 20260509204036 | 22 | 143 | 3.2 | 11.3 | 0.00 | 0.00 | 0.00 | 46 | 1007.8 |
| 20260509203539 | 22 | 209 | 0.0 | 11.3 | 0.00 | 0.00 | 0.00 | 48 | 1007.9 |
| 20260509203038 | 22 | 298 | 4.8 | 11.3 | 0.00 | 0.00 | 0.00 | 47 | 1007.8 |
| 20260509202532 | 22 | 328 | 0.0 | 11.3 | 0.00 | 0.00 | 0.00 | 47 | 1007.7 |
| 20260509202039 | 22 | 136 | 0.0 | 11.3 | 0.00 | 0.00 | 0.00 | 48 | 1007.7 |
| 20260509201554 | 22 | 0 | 3.2 | 11.3 | 0.00 | 0.00 | 0.00 | 48 | 1007.8 |
| 20260509201035 | 21 | 0 | 0.0 | 9.7 | 0.00 | 0.00 | 0.00 | 47 | 1007.8 |
| 20260509200535 | 21 | 223 | 3.2 | 9.7 | 0.00 | 0.00 | 0.00 | 47 | 1007.9 |
| 20260509200057 | 21 | 0 | 0.0 | 8.0 | 0.00 | 0.00 | 0.00 | 47 | 1007.9 |
| 20260509195534 | 21 | 0 | 1.6 | 6.4 | 0.00 | 0.00 | 0.00 | 50 | 1008.1 |
| 20260509195035 | 21 | 0 | 0.0 | 6.4 | 0.00 | 0.00 | 0.00 | 47 | 1008.0 |
| 20260509194545 | 21 | 0 | 0.0 | 11.3 | 0.00 | 0.00 | 0.00 | 47 | 1008.3 |
| 20260509194035 | 21 | 221 | 3.2 | 12.9 | 0.00 | 0.00 | 0.00 | 47 | 1008.2 |
| 20260509193535 | 21 | 161 | 3.2 | 12.9 | 0.00 | 0.00 | 0.00 | 51 | 1008.4 |
| 20260509193100 | 21 | 115 | 1.6 | 11.3 | 0.00 | 0.00 | 0.00 | 49 | 1008.3 |
| 20260509192535 | 21 | 248 | 4.8 | 16.1 | 0.00 | 0.00 | 0.00 | 47 | 1008.4 |
| 20260509192032 | 21 | 107 | 3.2 | 16.1 | 0.00 | 0.00 | 0.00 | 50 | 1008.5 |
| 20260509191545 | 21 | 84 | 1.6 | 6.4 | 0.00 | 0.00 | 0.00 | 50 | 1008.6 |
| 20260509191035 | 20 | 332 | 3.2 | 16.1 | 0.00 | 0.00 | 0.00 | 50 | 1008.5 |
| 20260509190537 | 20 | 249 | 4.8 | 16.1 | 0.00 | 0.00 | 0.00 | 48 | 1008.6 |
| 20260509190046 | 21 | 232 | 6.4 | 14.5 | 0.00 | 0.00 | 0.00 | 51 | 1008.7 |
| 20260509185533 | 20 | 78 | 4.8 | 12.9 | 0.00 | 0.00 | 0.00 | 51 | 1008.6 |
| 20260509185035 | 20 | 165 | 3.2 | 14.5 | 0.00 | 0.00 | 0.00 | 51 | 1008.7 |
| 20260509184558 | 20 | 120 | 8.0 | 14.5 | 0.00 | 0.00 | 0.00 | 53 | 1008.8 |
| 20260509184034 | 20 | 304 | 3.2 | 12.9 | 0.00 | 0.00 | 0.00 | 54 | 1008.8 |
| 20260509183532 | 20 | 0 | 3.2 | 12.9 | 0.00 | 0.00 | 0.00 | 55 | 1008.9 |
| 20260509183046 | 20 | 82 | 4.8 | 14.5 | 0.00 | 0.00 | 0.00 | 51 | 1009.0 |
| 20260509182534 | 20 | 206 | 4.8 | 16.1 | 0.00 | 0.00 | 0.00 | 49 | 1009.0 |
| 20260509182032 | 19 | 27 | 6.4 | 16.1 | 0.00 | 0.00 | 0.00 | 54 | 1009.1 |
| 20260509181547 | 19 | 63 | 3.2 | 14.5 | 0.00 | 0.00 | 0.00 | 55 | 1009.2 |
| 20260509181033 | 19 | 127 | 6.4 | 14.5 | 0.00 | 0.00 | 0.00 | 52 | 1009.4 |
| 20260509180535 | 20 | 58 | 4.8 | 14.5 | 0.00 | 0.00 | 0.00 | 54 | 1009.4 |
| 20260509180043 | 19 | 85 | 4.8 | 14.5 | 0.00 | 0.00 | 0.00 | 55 | 1009.6 |
| 20260509175534 | 19 | 60 | 4.8 | 14.5 | 0.00 | 0.00 | 0.00 | 55 | 1009.7 |
| 20260509175034 | 19 | 55 | 6.4 | 14.5 | 0.00 | 0.00 | 0.00 | 52 | 1009.9 |
| 20260509174538 | 19 | 24 | 4.8 | 16.1 | 0.00 | 0.00 | 0.00 | 53 | 1009.7 |
| 20260509174034 | 18 | 343 | 6.4 | 17.7 | 0.00 | 0.00 | 0.00 | 53 | 1009.5 |
| 20260509173534 | 18 | 43 | 4.8 | 17.7 | 0.00 | 0.00 | 0.00 | 55 | 1009.6 |
| 20260509173044 | 18 | 46 | 9.7 | 17.7 | 0.00 | 0.00 | 0.00 | 52 | 1009.7 |
| 20260509172535 | 19 | 55 | 3.2 | 12.9 | 0.00 | 0.00 | 0.00 | 52 | 1009.9 |
| 20260509172035 | 18 | 36 | 4.8 | 12.9 | 0.00 | 0.00 | 0.00 | 51 | 1009.6 |
| 20260509171603 | 19 | 32 | 4.8 | 11.3 | 0.00 | 0.00 | 0.00 | 52 | 1009.6 |
| 20260509171034 | 18 | 74 | 3.2 | 11.3 | 0.00 | 0.00 | 0.00 | 52 | 1009.7 |
| 20260509170535 | 18 | 65 | 3.2 | 11.3 | 0.00 | 0.00 | 0.00 | 52 | 1009.9 |
| 20260509170044 | 19 | 42 | 4.8 | 11.3 | 0.00 | 0.00 | 0.00 | 51 | 1009.9 |
| 20260509165532 | 19 | 44 | 3.2 | 8.0 | 0.00 | 0.00 | 0.00 | 49 | 1010.1 |
| 20260509165034 | 19 | 0 | 3.2 | 8.0 | 0.00 | 0.00 | 0.00 | 47 | 1010.0 |
| 20260509164543 | 19 | 342 | 3.2 | 8.0 | 0.00 | 0.00 | 0.00 | 48 | 1010.1 |
| 20260509164034 | 19 | 96 | 1.6 | 8.0 | 0.00 | 0.00 | 0.00 | 48 | 1010.0 |
| 20260509163534 | 19 | 27 | 3.2 | 6.4 | 0.00 | 0.00 | 0.00 | 46 | 1010.0 |
| 20260509163041 | 19 | 136 | 1.6 | 4.8 | 0.00 | 0.00 | 0.00 | 45 | 1010.0 |
| 20260509162535 | 19 | 75 | 0.0 | 4.8 | 0.00 | 0.00 | 0.00 | 47 | 1009.9 |
| 20260509162035 | 19 | 57 | 1.6 | 4.8 | 0.00 | 0.00 | 0.00 | 45 | 1009.9 |
| 20260509161538 | 19 | 0 | 1.6 | 11.3 | 0.00 | 0.00 | 0.00 | 46 | 1009.9 |
| 20260509161034 | 19 | 252 | 3.2 | 11.3 | 0.00 | 0.00 | 0.00 | 48 | 1010.0 |
| 20260509160532 | 19 | 265 | 0.0 | 9.7 | 0.00 | 0.00 | 0.00 | 47 | 1010.0 |
| 20260509160048 | 19 | 179 | 1.6 | 9.7 | 0.00 | 0.00 | 0.00 | 47 | 1009.9 |
| 20260509155533 | 19 | 0 | 0.0 | 4.8 | 0.00 | 0.00 | 0.00 | 46 | 1009.8 |
| 20260509155033 | 19 | 291 | 1.6 | 4.8 | 0.00 | 0.00 | 0.00 | 48 | 1009.6 |
| 20260509154549 | 19 | 277 | 1.6 | 4.8 | 0.00 | 0.00 | 0.00 | 47 | 1009.6 |
| 20260509154034 | 19 | 0 | 0.0 | 4.8 | 0.00 | 0.00 | 0.00 | 48 | 1009.5 |
| 20260509153626 | 18 | 0 | 0.0 | 4.8 | 0.00 | 0.00 | 0.00 | 48 | 1009.7 |
| 20260509153049 | 18 | 0 | 0.0 | 9.7 | 0.00 | 0.00 | 0.00 | 52 | 1009.8 |
| 20260509152535 | 18 | 225 | 0.0 | 9.7 | 0.00 | 0.00 | 0.00 | 54 | 1009.9 |
| 20260509152035 | 18 | 225 | 1.6 | 9.7 | 0.00 | 0.00 | 0.00 | 51 | 1010.0 |
| 20260509151627 | 18 | 61 | 1.6 | 11.3 | 0.00 | 0.00 | 0.00 | 52 | 1010.0 |
| 20260509151033 | 18 | 173 | 4.8 | 11.3 | 0.00 | 0.00 | 0.00 | 54 | 1010.1 |
| 20260509150534 | 18 | 165 | 3.2 | 11.3 | 0.00 | 0.00 | 0.00 | 55 | 1010.2 |
| 20260509150100 | 17 | 178 | 1.6 | 11.3 | 0.00 | 0.00 | 0.00 | 54 | 1010.1 |
| 20260509145532 | 17 | 97 | 3.2 | 11.3 | 0.00 | 0.00 | 0.00 | 55 | 1010.3 |
| 20260509145033 | 17 | 155 | 1.6 | 11.3 | 0.00 | 0.00 | 0.00 | 53 | 1010.2 |
| 20260509144651 | 17 | 298 | 1.6 | 8.0 | 0.00 | 0.00 | 0.00 | 54 | 1010.2 |
| 20260509144040 | 17 | 231 | 1.6 | 8.0 | 0.00 | 0.00 | 0.00 | 55 | 1010.2 |
| 20260509143534 | 17 | 0 | 0.0 | 8.0 | 0.00 | 0.00 | 0.00 | 56 | 1010.1 |
| 20260509143051 | 17 | 208 | 0.0 | 9.7 | 0.00 | 0.00 | 0.00 | 55 | 1010.1 |
| 20260509142536 | 17 | 259 | 1.6 | 11.3 | 0.00 | 0.00 | 0.00 | 55 | 1010.4 |
| 20260509142032 | 17 | 267 | 3.2 | 14.5 | 0.00 | 0.00 | 0.00 | 54 | 1010.4 |
| 20260509141547 | 17 | 235 | 1.6 | 14.5 | 0.00 | 0.00 | 0.00 | 55 | 1010.4 |
| 20260509141036 | 16 | 293 | 1.6 | 14.5 | 0.00 | 0.00 | 0.00 | 56 | 1010.6 |
| 20260509140532 | 16 | 239 | 4.8 | 14.5 | 0.00 | 0.00 | 0.00 | 56 | 1010.6 |
| 20260509140045 | 16 | 186 | 4.8 | 11.3 | 0.00 | 0.00 | 0.00 | 56 | 1010.6 |
| 20260509135538 | 16 | 209 | 4.8 | 11.3 | 0.00 | 0.00 | 0.00 | 56 | 1010.8 |
| 20260509135035 | 16 | 231 | 1.6 | 9.7 | 0.00 | 0.00 | 0.00 | 58 | 1010.8 |
| 20260509134544 | 15 | 230 | 4.8 | 9.7 | 0.00 | 0.00 | 0.00 | 58 | 1010.9 |
| 20260509134033 | 15 | 216 | 3.2 | 9.7 | 0.00 | 0.00 | 0.00 | 58 | 1010.9 |
| 20260509133538 | 15 | 279 | 1.6 | 8.0 | 0.00 | 0.00 | 0.00 | 58 | 1010.9 |
| 20260509133044 | 15 | 237 | 1.6 | 8.0 | 0.00 | 0.00 | 0.00 | 59 | 1010.8 |
| 20260509132533 | 15 | 237 | 3.2 | 8.0 | 0.00 | 0.00 | 0.00 | 56 | 1010.8 |
| 20260509132036 | 15 | 256 | 4.8 | 11.3 | 0.00 | 0.00 | 0.00 | 56 | 1010.8 |
| 20260509131543 | 15 | 252 | 3.2 | 11.3 | 0.00 | 0.00 | 0.00 | 56 | 1010.7 |
| 20260509131035 | 15 | 243 | 1.6 | 8.0 | 0.00 | 0.00 | 0.00 | 57 | 1010.5 |
| 20260509130535 | 15 | 182 | 1.6 | 8.0 | 0.00 | 0.00 | 0.00 | 57 | 1010.5 |
| 20260509130042 | 15 | 220 | 1.6 | 8.0 | 0.00 | 0.00 | 0.00 | 57 | 1010.7 |
| 20260509125531 | 15 | 265 | 3.2 | 8.0 | 0.00 | 0.00 | 0.00 | 57 | 1010.6 |
| 20260509125034 | 15 | 241 | 3.2 | 9.7 | 0.00 | 0.00 | 0.00 | 57 | 1010.6 |
| 20260509124604 | 14 | 213 | 3.2 | 11.3 | 0.00 | 0.00 | 0.00 | 56 | 1010.8 |
| 20260509124034 | 14 | 228 | 3.2 | 12.9 | 0.00 | 0.00 | 0.00 | 56 | 1010.7 |
| 20260509123532 | 14 | 240 | 4.8 | 12.9 | 0.00 | 0.00 | 0.00 | 56 | 1010.7 |
| 20260509123045 | 14 | 218 | 4.8 | 11.3 | 0.00 | 0.00 | 0.00 | 56 | 1010.7 |
| 20260509122532 | 14 | 235 | 3.2 | 9.7 | 0.00 | 0.00 | 0.00 | 56 | 1010.8 |
| 20260509122033 | 14 | 286 | 3.2 | 6.4 | 0.00 | 0.00 | 0.00 | 56 | 1010.7 |
| 20260509121547 | 14 | 244 | 1.6 | 11.3 | 0.00 | 0.00 | 0.00 | 56 | 1010.7 |
| 20260509121038 | 14 | 0 | 3.2 | 12.9 | 0.00 | 0.00 | 0.00 | 55 | 1010.7 |
| 20260509120534 | 14 | 263 | 4.8 | 14.5 | 0.00 | 0.00 | 0.00 | 55 | 1010.7 |
| 20260509120043 | 14 | 261 | 6.4 | 14.5 | 0.00 | 0.00 | 0.00 | 55 | 1010.8 |
| 20260509115531 | 14 | 268 | 6.4 | 12.9 | 0.00 | 0.00 | 0.00 | 55 | 1010.8 |
| 20260509115034 | 14 | 265 | 3.2 | 12.9 | 0.00 | 0.00 | 0.00 | 55 | 1010.7 |
| 20260509114543 | 14 | 290 | 3.2 | 12.9 | 0.00 | 0.00 | 0.00 | 55 | 1010.6 |
| 20260509114034 | 14 | 281 | 4.8 | 12.9 | 0.00 | 0.00 | 0.00 | 55 | 1010.6 |
| 20260509113541 | 14 | 252 | 4.8 | 12.9 | 0.00 | 0.00 | 0.00 | 55 | 1010.7 |
| 20260509113044 | 14 | 248 | 3.2 | 12.9 | 0.00 | 0.00 | 0.00 | 55 | 1010.6 |
| 20260509112534 | 13 | 242 | 4.8 | 12.9 | 0.00 | 0.00 | 0.00 | 55 | 1010.6 |
| 20260509112031 | 13 | 286 | 3.2 | 8.0 | 0.00 | 0.00 | 0.00 | 55 | 1010.6 |
| 20260509111543 | 13 | 224 | 1.6 | 9.7 | 0.00 | 0.00 | 0.00 | 55 | 1010.6 |
| 20260509111036 | 13 | 268 | 3.2 | 9.7 | 0.00 | 0.00 | 0.00 | 55 | 1010.6 |
| 20260509110534 | 13 | 244 | 3.2 | 11.3 | 0.00 | 0.00 | 0.00 | 55 | 1010.6 |
| 20260509110047 | 13 | 0 | 3.2 | 11.3 | 0.00 | 0.00 | 0.00 | 55 | 1010.6 |
| 20260509105533 | 13 | 0 | 4.8 | 14.5 | 0.00 | 0.00 | 0.00 | 55 | 1010.5 |
| 20260509105034 | 13 | 295 | 3.2 | 14.5 | 0.00 | 0.00 | 0.00 | 55 | 1010.6 |
| 20260509104540 | 13 | 302 | 3.2 | 14.5 | 0.00 | 0.00 | 0.00 | 55 | 1010.6 |
| 20260509104033 | 13 | 304 | 3.2 | 11.3 | 0.00 | 0.00 | 0.00 | 55 | 1010.6 |
| 20260509103538 | 13 | 281 | 3.2 | 9.7 | 0.00 | 0.00 | 0.00 | 55 | 1010.5 |
| 20260509103048 | 13 | 265 | 1.6 | 4.8 | 0.00 | 0.00 | 0.00 | 56 | 1010.6 |
| 20260509102533 | 13 | 253 | 1.6 | 6.4 | 0.00 | 0.00 | 0.00 | 56 | 1010.6 |
| 20260509102032 | 13 | 0 | 0.0 | 8.0 | 0.00 | 0.00 | 0.00 | 56 | 1010.6 |
| 20260509101546 | 13 | 236 | 1.6 | 8.0 | 0.00 | 0.00 | 0.00 | 56 | 1010.5 |
| 20260509101035 | 13 | 310 | 1.6 | 11.3 | 0.00 | 0.00 | 0.00 | 56 | 1010.6 |
| 20260509100533 | 13 | 284 | 4.8 | 11.3 | 0.00 | 0.00 | 0.00 | 55 | 1010.4 |
| 20260509100052 | 13 | 247 | 0.0 | 11.3 | 0.00 | 0.00 | 0.00 | 56 | 1010.3 |
| 20260509095534 | 13 | 300 | 3.2 | 11.3 | 0.00 | 0.00 | 0.00 | 55 | 1010.3 |
| 20260509095039 | 13 | 279 | 3.2 | 11.3 | 0.00 | 0.00 | 0.00 | 56 | 1010.3 |
| 20260509094550 | 13 | 279 | 3.2 | 9.7 | 0.00 | 0.00 | 0.00 | 55 | 1010.5 |
| 20260509094034 | 13 | 278 | 4.8 | 11.3 | 0.00 | 0.00 | 0.00 | 55 | 1010.4 |
| 20260509093535 | 13 | 271 | 3.2 | 11.3 | 0.00 | 0.00 | 0.00 | 56 | 1010.6 |
| 20260509093045 | 13 | 276 | 3.2 | 11.3 | 0.00 | 0.00 | 0.00 | 56 | 1010.6 |
| 20260509092535 | 13 | 0 | 1.6 | 11.3 | 0.00 | 0.00 | 0.00 | 56 | 1010.6 |
| 20260509092036 | 13 | 265 | 1.6 | 9.7 | 0.00 | 0.00 | 0.00 | 56 | 1010.5 |
| 20260509091542 | 13 | 222 | 3.2 | 9.7 | 0.00 | 0.00 | 0.00 | 56 | 1010.5 |
| 20260509091037 | 13 | 244 | 1.6 | 12.9 | 0.00 | 0.00 | 0.00 | 56 | 1010.5 |
| 20260509090539 | 13 | 303 | 0.0 | 12.9 | 0.00 | 0.00 | 0.00 | 56 | 1010.5 |
| 20260509090049 | 13 | 246 | 3.2 | 12.9 | 0.00 | 0.00 | 0.00 | 55 | 1010.3 |
| 20260509085534 | 13 | 275 | 1.6 | 11.3 | 0.00 | 0.00 | 0.00 | 56 | 1010.4 |
| 20260509085036 | 13 | 238 | 1.6 | 6.4 | 0.00 | 0.00 | 0.00 | 56 | 1010.5 |
| 20260509084553 | 13 | 290 | 1.6 | 6.4 | 0.00 | 0.00 | 0.00 | 56 | 1010.7 |
| 20260509084036 | 13 | 294 | 0.0 | 9.7 | 0.00 | 0.00 | 0.00 | 57 | 1010.6 |
| 20260509083539 | 13 | 252 | 1.6 | 9.7 | 0.00 | 0.00 | 0.00 | 57 | 1010.7 |
| 20260509083047 | 13 | 0 | 1.6 | 9.7 | 0.00 | 0.00 | 0.00 | 57 | 1010.6 |
| 20260509082535 | 13 | 285 | 0.0 | 6.4 | 0.00 | 0.00 | 0.00 | 58 | 1010.8 |
| 20260509082035 | 13 | 301 | 1.6 | 11.3 | 0.00 | 0.00 | 0.00 | 57 | 1010.8 |
| 20260509081548 | 13 | 0 | 3.2 | 11.3 | 0.00 | 0.00 | 0.00 | 58 | 1010.8 |
| 20260509081038 | 13 | 348 | 3.2 | 4.8 | 0.00 | 0.00 | 0.00 | 58 | 1010.7 |
| 20260509080538 | 13 | 0 | 1.6 | 6.4 | 0.00 | 0.00 | 0.00 | 59 | 1010.8 |
| 20260509080044 | 13 | 227 | 1.6 | 6.4 | 0.00 | 0.00 | 0.00 | 59 | 1010.9 |
| 20260509075536 | 13 | 198 | 0.0 | 6.4 | 0.00 | 0.00 | 0.00 | 59 | 1010.9 |
| 20260509075037 | 13 | 263 | 3.2 | 6.4 | 0.00 | 0.00 | 0.00 | 59 | 1010.9 |
| 20260509074559 | 13 | 221 | 1.6 | 6.4 | 0.00 | 0.00 | 0.00 | 59 | 1011.0 |
| 20260509074034 | 13 | 261 | 0.0 | 6.4 | 0.00 | 0.00 | 0.00 | 60 | 1011.0 |
| 20260509073536 | 13 | 294 | 0.0 | 8.0 | 0.00 | 0.00 | 0.00 | 59 | 1011.0 |
| 20260509073055 | 13 | 248 | 1.6 | 8.0 | 0.00 | 0.00 | 0.00 | 59 | 1011.1 |
| 20260509072539 | 13 | 275 | 1.6 | 8.0 | 0.00 | 0.00 | 0.00 | 59 | 1011.2 |
| 20260509072035 | 13 | 0 | 0.0 | 3.2 | 0.00 | 0.00 | 0.00 | 59 | 1011.1 |
| 20260509071557 | 13 | 271 | 0.0 | 3.2 | 0.00 | 0.00 | 0.00 | 58 | 1011.1 |
| 20260509071039 | 13 | 272 | 0.0 | 3.2 | 0.00 | 0.00 | 0.00 | 58 | 1011.2 |
| 20260509070534 | 13 | 0 | 0.0 | 6.4 | 0.00 | 0.00 | 0.00 | 57 | 1011.2 |
| 20260509070048 | 13 | 259 | 1.6 | 6.4 | 0.00 | 0.00 | 0.00 | 58 | 1011.2 |
| 20260509065536 | 13 | 290 | 3.2 | 6.4 | 0.00 | 0.00 | 0.00 | 58 | 1011.3 |
| 20260509065031 | 13 | 0 | 3.2 | 8.0 | 0.00 | 0.00 | 0.00 | 59 | 1011.3 |
| 20260509064544 | 13 | 288 | 1.6 | 8.0 | 0.00 | 0.00 | 0.00 | 59 | 1011.3 |
| 20260509064036 | 13 | 254 | 1.6 | 6.4 | 0.00 | 0.00 | 0.00 | 59 | 1011.4 |
| 20260509063535 | 12 | 0 | 1.6 | 11.3 | 0.00 | 0.00 | 0.00 | 60 | 1011.4 |
| 20260509063044 | 12 | 278 | 0.0 | 11.3 | 0.00 | 0.00 | 0.00 | 60 | 1011.5 |
| 20260509062535 | 12 | 283 | 3.2 | 9.7 | 0.00 | 0.00 | 0.00 | 60 | 1011.6 |
| 20260509062034 | 12 | 294 | 4.8 | 12.9 | 0.00 | 0.00 | 0.00 | 61 | 1011.6 |
| 20260509061549 | 12 | 325 | 4.8 | 12.9 | 0.00 | 0.00 | 0.00 | 62 | 1011.6 |
| 20260509061032 | 12 | 317 | 3.2 | 8.0 | 0.00 | 0.00 | 0.00 | 63 | 1011.6 |
| 20260509060535 | 12 | 311 | 3.2 | 6.4 | 0.00 | 0.00 | 0.00 | 63 | 1011.6 |
| 20260509060048 | 12 | 311 | 1.6 | 6.4 | 0.00 | 0.00 | 0.00 | 63 | 1011.7 |
| 20260509055533 | 12 | 271 | 1.6 | 6.4 | 0.00 | 0.00 | 0.00 | 62 | 1011.8 |
| 20260509055037 | 12 | 285 | 0.0 | 3.2 | 0.00 | 0.00 | 0.00 | 63 | 1011.7 |
| 20260509054548 | 12 | 0 | 0.0 | 4.8 | 0.00 | 0.00 | 0.00 | 63 | 1011.7 |
| 20260509054034 | 12 | 0 | 0.0 | 4.8 | 0.00 | 0.00 | 0.00 | 64 | 1011.8 |
| 20260509053532 | 12 | 294 | 0.0 | 3.2 | 0.00 | 0.00 | 0.00 | 63 | 1011.8 |
| 20260509053045 | 12 | 294 | 0.0 | 3.2 | 0.00 | 0.00 | 0.00 | 63 | 1011.8 |
| 20260509052533 | 12 | 0 | 0.0 | 3.2 | 0.00 | 0.00 | 0.00 | 61 | 1011.8 |
| 20260509052031 | 13 | 0 | 0.0 | 3.2 | 0.00 | 0.00 | 0.00 | 60 | 1011.7 |
| 20260509051544 | 13 | 294 | 0.0 | 4.8 | 0.00 | 0.00 | 0.00 | 58 | 1011.8 |
| 20260509051031 | 13 | 0 | 1.6 | 4.8 | 0.00 | 0.00 | 0.00 | 58 | 1011.8 |
| 20260509050535 | 13 | 273 | 1.6 | 4.8 | 0.00 | 0.00 | 0.00 | 58 | 1011.8 |
| 20260509050055 | 13 | 290 | 1.6 | 4.8 | 0.00 | 0.00 | 0.00 | 58 | 1011.8 |
| 20260509045535 | 14 | 268 | 0.0 | 4.8 | 0.00 | 0.00 | 0.00 | 57 | 1011.8 |
| 20260509045035 | 14 | 0 | 0.0 | 4.8 | 0.00 | 0.00 | 0.00 | 57 | 1011.7 |
| 20260509044548 | 14 | 0 | 0.0 | 12.9 | 0.00 | 0.00 | 0.00 | 56 | 1011.8 |
| 20260509044031 | 14 | 279 | 1.6 | 12.9 | 0.00 | 0.00 | 0.00 | 56 | 1011.8 |
| 20260509043531 | 14 | 277 | 3.2 | 12.9 | 0.00 | 0.00 | 0.00 | 57 | 1011.7 |
| 20260509043038 | 14 | 201 | 4.8 | 8.0 | 0.00 | 0.00 | 0.00 | 56 | 1011.7 |
| 20260509042533 | 14 | 204 | 3.2 | 6.4 | 0.00 | 0.00 | 0.00 | 57 | 1011.7 |
| 20260509042035 | 14 | 0 | 3.2 | 6.4 | 0.00 | 0.00 | 0.00 | 57 | 1011.8 |
| 20260509041547 | 14 | 207 | 1.6 | 6.4 | 0.00 | 0.00 | 0.00 | 58 | 1011.7 |
| 20260509041032 | 14 | 216 | 1.6 | 8.0 | 0.00 | 0.00 | 0.00 | 58 | 1011.7 |
| 20260509040536 | 14 | 246 | 3.2 | 9.7 | 0.00 | 0.00 | 0.00 | 58 | 1011.7 |
| 20260509040053 | 14 | 235 | 1.6 | 9.7 | 0.00 | 0.00 | 0.00 | 57 | 1011.6 |
| 20260509035531 | 14 | 243 | 0.0 | 6.4 | 0.00 | 0.00 | 0.00 | 58 | 1011.7 |
| 20260509035032 | 14 | 232 | 1.6 | 6.4 | 0.00 | 0.00 | 0.00 | 57 | 1011.6 |
| 20260509034557 | 14 | 242 | 3.2 | 8.0 | 0.00 | 0.00 | 0.00 | 57 | 1011.6 |
| 20260509034031 | 13 | 215 | 3.2 | 8.0 | 0.00 | 0.00 | 0.00 | 59 | 1011.8 |
| 20260509033533 | 13 | 249 | 3.2 | 6.4 | 0.00 | 0.00 | 0.00 | 61 | 1011.8 |
| 20260509033050 | 13 | 0 | 1.6 | 4.8 | 0.00 | 0.00 | 0.00 | 64 | 1011.8 |
| 20260509032534 | 13 | 259 | 1.6 | 4.8 | 0.00 | 0.00 | 0.00 | 64 | 1011.8 |
| 20260509032035 | 12 | 288 | 1.6 | 4.8 | 0.00 | 0.00 | 0.00 | 63 | 1011.9 |
| 20260509031552 | 12 | 257 | 1.6 | 4.8 | 0.00 | 0.00 | 0.00 | 63 | 1011.8 |
| 20260509031037 | 12 | 0 | 1.6 | 4.8 | 0.00 | 0.00 | 0.00 | 63 | 1011.8 |
| 20260509030534 | 13 | 299 | 1.6 | 4.8 | 0.00 | 0.00 | 0.00 | 62 | 1011.9 |
| 20260509030048 | 13 | 299 | 1.6 | 8.0 | 0.00 | 0.00 | 0.00 | 59 | 1011.8 |
| 20260509025531 | 14 | 277 | 3.2 | 8.0 | 0.00 | 0.00 | 0.00 | 55 | 1011.8 |
| 20260509025031 | 15 | 284 | 3.2 | 12.9 | 0.00 | 0.00 | 0.00 | 54 | 1011.9 |
| 20260509024543 | 15 | 246 | 3.2 | 17.7 | 0.00 | 0.00 | 0.00 | 54 | 1011.8 |
| 20260509024032 | 15 | 231 | 6.4 | 17.7 | 0.00 | 0.00 | 0.00 | 54 | 1011.9 |
| 20260509023532 | 14 | 255 | 1.6 | 6.4 | 0.00 | 0.00 | 0.00 | 54 | 1012.0 |
| 20260509023055 | 15 | 255 | 1.6 | 8.0 | 0.00 | 0.00 | 0.00 | 54 | 1011.9 |
| 20260509022531 | 15 | 296 | 1.6 | 11.3 | 0.00 | 0.00 | 0.00 | 54 | 1011.9 |
| 20260509022034 | 15 | 0 | 1.6 | 11.3 | 0.00 | 0.00 | 0.00 | 54 | 1012.0 |
| 20260509021544 | 14 | 286 | 1.6 | 6.4 | 0.00 | 0.00 | 0.00 | 54 | 1011.9 |
| 20260509021035 | 14 | 288 | 3.2 | 11.3 | 0.00 | 0.00 | 0.00 | 55 | 1011.9 |
| 20260509020532 | 14 | 271 | 3.2 | 11.3 | 0.00 | 0.00 | 0.00 | 54 | 1011.8 |
| 20260509020055 | 14 | 271 | 1.6 | 6.4 | 0.00 | 0.00 | 0.00 | 55 | 1011.7 |
| 20260509015531 | 14 | 300 | 1.6 | 9.7 | 0.00 | 0.00 | 0.00 | 55 | 1011.8 |
| 20260509015032 | 13 | 298 | 1.6 | 9.7 | 0.00 | 0.00 | 0.00 | 56 | 1011.8 |
| 20260509014545 | 13 | 0 | 1.6 | 9.7 | 0.00 | 0.00 | 0.00 | 59 | 1011.7 |
| 20260509014035 | 13 | 277 | 3.2 | 8.0 | 0.00 | 0.00 | 0.00 | 59 | 1011.7 |
| 20260509013532 | 13 | 292 | 3.2 | 8.0 | 0.00 | 0.00 | 0.00 | 61 | 1011.7 |
| 20260509013106 | 13 | 303 | 3.2 | 8.0 | 0.00 | 0.00 | 0.00 | 61 | 1011.7 |
| 20260509012535 | 12 | 277 | 4.8 | 8.0 | 0.00 | 0.00 | 0.00 | 64 | 1011.8 |
| 20260509012031 | 12 | 297 | 1.6 | 6.4 | 0.00 | 0.00 | 0.00 | 66 | 1011.7 |
| 20260509011543 | 11 | 298 | 3.2 | 6.4 | 0.00 | 0.00 | 0.00 | 65 | 1011.6 |
| 20260509011031 | 12 | 322 | 3.2 | 4.8 | 0.00 | 0.00 | 0.00 | 65 | 1011.6 |
| 20260509010532 | 12 | 345 | 0.0 | 3.2 | 0.00 | 0.00 | 0.00 | 64 | 1011.6 |
| 20260509010050 | 12 | 345 | 0.0 | 4.8 | 0.00 | 0.00 | 0.00 | 63 | 1011.5 |
| 20260509005533 | 13 | 0 | 1.6 | 4.8 | 0.00 | 0.00 | 0.00 | 62 | 1011.6 |
| 20260509005033 | 13 | 345 | 0.0 | 4.8 | 0.00 | 0.00 | 0.00 | 60 | 1011.6 |
| 20260509004543 | 13 | 345 | 1.6 | 4.8 | 0.00 | 0.00 | 0.00 | 59 | 1011.5 |
| 20260509004036 | 14 | 345 | 1.6 | 4.8 | 0.00 | 0.00 | 0.00 | 57 | 1011.4 |
| 20260509003533 | 15 | 345 | 0.0 | 4.8 | 0.00 | 0.00 | 0.00 | 56 | 1011.4 |
| 20260509003040 | 15 | 0 | 0.0 | 3.2 | 0.00 | 0.00 | 0.00 | 55 | 1011.3 |
| 20260509002536 | 15 | 0 | 0.0 | 3.2 | 0.00 | 0.00 | 0.00 | 54 | 1011.4 |
| 20260509002035 | 16 | 0 | 0.0 | 3.2 | 0.00 | 0.00 | 0.00 | 53 | 1011.4 |
| 20260509001550 | 16 | 317 | 0.0 | 4.8 | 0.00 | 0.00 | 0.00 | 50 | 1011.2 |
| 20260509001035 | 17 | 317 | 1.6 | 4.8 | 0.00 | 0.00 | 0.00 | 46 | 1011.1 |
| 20260509000535 | 17 | 0 | 0.0 | 3.2 | 0.00 | 0.00 | 0.00 | 44 | 1011.1 |
| 20260509000047 | 18 | 0 | 0.0 | 3.2 | 0.00 | 0.00 | 0.00 | 42 | 1010.9 |
| 20260508235535 | 18 | 157 | 0.0 | 6.4 | 0.00 | 0.00 | 0.00 | 41 | 1010.8 |
| 20260508235035 | 19 | 0 | 0.0 | 8.0 | 0.00 | 0.00 | 0.00 | 40 | 1010.7 |
| 20260508234543 | 19 | 163 | 3.2 | 9.7 | 0.00 | 0.00 | 0.00 | 38 | 1010.8 |
| 20260508234037 | 19 | 164 | 3.2 | 11.3 | 0.00 | 0.00 | 0.00 | 38 | 1010.8 |
| 20260508233537 | 20 | 159 | 4.8 | 17.7 | 0.00 | 0.00 | 0.00 | 37 | 1010.7 |
| 20260508233043 | 20 | 184 | 6.4 | 17.7 | 0.00 | 0.00 | 0.00 | 37 | 1010.7 |
| 20260508232535 | 20 | 148 | 8.0 | 17.7 | 0.00 | 0.00 | 0.00 | 36 | 1010.5 |
| 20260508232035 | 20 | 157 | 3.2 | 16.1 | 0.00 | 0.00 | 0.00 | 38 | 1010.6 |
| 20260508231551 | 20 | 171 | 6.4 | 16.1 | 0.00 | 0.00 | 0.00 | 36 | 1010.5 |
| 20260508231036 | 20 | 177 | 3.2 | 9.7 | 0.00 | 0.00 | 0.00 | 36 | 1010.6 |
| 20260508230536 | 20 | 151 | 4.8 | 9.7 | 0.00 | 0.00 | 0.00 | 36 | 1010.6 |
| 20260508230055 | 20 | 162 | 3.2 | 8.0 | 0.00 | 0.00 | 0.00 | 36 | 1010.6 |
| 20260508225536 | 20 | 167 | 1.6 | 6.4 | 0.00 | 0.00 | 0.00 | 38 | 1010.6 |
| 20260508225037 | 20 | 193 | 1.6 | 14.5 | 0.00 | 0.00 | 0.00 | 36 | 1010.6 |
| 20260508224559 | 20 | 181 | 3.2 | 14.5 | 0.00 | 0.00 | 0.00 | 37 | 1010.6 |
| 20260508224035 | 20 | 184 | 4.8 | 14.5 | 0.00 | 0.00 | 0.00 | 34 | 1010.5 |
| 20260508223538 | 20 | 140 | 3.2 | 9.7 | 0.00 | 0.00 | 0.00 | 33 | 1010.4 |
| 20260508223045 | 21 | 161 | 6.4 | 12.9 | 0.00 | 0.00 | 0.00 | 34 | 1010.6 |
| 20260508222533 | 21 | 164 | 4.8 | 12.9 | 0.00 | 0.00 | 0.00 | 33 | 1010.5 |
| 20260508222037 | 20 | 179 | 4.8 | 9.7 | 0.00 | 0.00 | 0.00 | 34 | 1010.6 |
| 20260508221558 | 20 | 0 | 1.6 | 9.7 | 0.00 | 0.00 | 0.00 | 35 | 1010.4 |
| 20260508221036 | 21 | 196 | 3.2 | 9.7 | 0.00 | 0.00 | 0.00 | 32 | 1010.4 |
| 20260508220532 | 21 | 198 | 3.2 | 9.7 | 0.00 | 0.00 | 0.00 | 34 | 1010.3 |
| 20260508220050 | 21 | 215 | 3.2 | 14.5 | 0.00 | 0.00 | 0.00 | 33 | 1010.3 |
| 20260508215536 | 21 | 184 | 6.4 | 16.1 | 0.00 | 0.00 | 0.00 | 32 | 1010.4 |
| 20260508215036 | 21 | 219 | 8.0 | 16.1 | 0.00 | 0.00 | 0.00 | 32 | 1010.4 |
| 20260508214547 | 21 | 190 | 4.8 | 19.3 | 0.00 | 0.00 | 0.00 | 32 | 1010.5 |
| 20260508214040 | 21 | 259 | 4.8 | 19.3 | 0.00 | 0.00 | 0.00 | 32 | 1010.3 |
| 20260508213537 | 21 | 215 | 3.2 | 14.5 | 0.00 | 0.00 | 0.00 | 33 | 1010.4 |
| 20260508213101 | 21 | 238 | 6.4 | 17.7 | 0.00 | 0.00 | 0.00 | 33 | 1010.6 |
| 20260508212536 | 21 | 222 | 4.8 | 17.7 | 0.00 | 0.00 | 0.00 | 33 | 1010.5 |
| 20260508212036 | 21 | 231 | 8.0 | 19.3 | 0.00 | 0.00 | 0.00 | 33 | 1010.6 |